Regional Weather Roundup
Issued by NWS

Home | Current Version | Previous Version | Graphics & Text | Print | Product List | Glossary On
Versions: 1 2 3 4 5 6 7 8 9 10 11 12 13 14 15 16 17 18 19 20 21 22 23 24 25 26 27 28 29 30 31 32 33 34 35 36 37 38 39 40 41 42 43 44 45 46 47 48 49 50
000
ASUS43 KMPX 040610
RWRMN
WEATHER ROUNDUP FOR MINNESOTA
NATIONAL WEATHER SERVICE TWIN CITIES/CHANHASSEN MN
100 AM CDT SAT JUL 04 2015


NOTE: "FAIR" INDICATES FEW OR NO CLOUDS BELOW 12,000 FEET WITH NO
SIGNIFICANT WEATHER AND/OR OBSTRUCTIONS TO VISIBILITY. N/A MEANS
CURRENT SKY AND/OR WEATHER CONDITIONS ARE NOT AVAILABLE.

MNZ060>063-068>070-040700-
   Twin Cities Metro

CITY           SKY/WX    TMP DP  RH WIND       PRES   REMARKS
TWIN CITIES    MOCLDY    70  59  68 CALM      29.92S
6HR MIN TEMP:  70; 6HR MAX TEMP:  78;

ST PAUL        CLEAR     67  62  84 CALM      29.92S
CRYSTAL        CLEAR     65  60  84 CALM      29.91S
BLAINE         CLEAR     66  63  88 CALM      29.92S
LAKEVILLE      CLEAR     61  57  88 CALM      29.93S
EDEN PRAIRIE   CLEAR     67  60  78 W5        29.92R
6HR MIN TEMP:  67; 6HR MAX TEMP:  77;

SOUTH ST PAUL  CLEAR     67  60  78 CALM      29.92S
LAKE ELMO      FAIR      63  61  94 CALM      29.93S
$$
MNZ001>005-007-008-013>017-022>024-027-028-040700-
   Northwest Minnesota

CITY           SKY/WX    TMP DP  RH WIND       PRES   REMARKS
BEMIDJI        CLEAR     56  55  94 CALM      29.94S FOG
HALLOCK        CLEAR     59  57  94 S5        29.90R FOG
ROSEAU         CLEAR     61  55  82 CALM      29.92R
WARROAD        CLEAR     63  57  82 SW3       29.92S
THIEF RVR FALL CLEAR     61  59  94 CALM      29.92S
CROOKSTON      CLEAR     63  59  88 CALM      29.91F FOG
FOSSTON        CLEAR     55  50  82 CALM      29.94S HAZE
DETROIT LAKES  CLEAR     63  61  94 CALM      29.95S FOG
MOORHEAD       CLEAR     64  63  94 SE5       29.91F FOG
PARK RAPIDS    CLOUDY    62  58  86 CALM      29.94S FOG
MAHNOMEN       CLOUDY    64  60  88 SE5       29.92F
$$
MNZ006-009>011-018-025>026-040700-
   North Central Minnesota

CITY           SKY/WX    TMP DP  RH WIND       PRES   REMARKS
BAUDETTE       CLEAR     57  55  93 E3        29.91S
FLAG ISLAND    CLEAR     70  57  64 W5        29.90R
INTL FALLS     CLEAR     51  50  96 CALM      29.93S
6HR MIN TEMP:  51; 6HR MAX TEMP:  77;

WASKISH        CLEAR     54  52  94 CALM      29.93S FOG
BIG FORK       CLEAR     54  52  94 CALM      29.95S
LONGVILLE      CLEAR     55  55 100 CALM      29.94S FOG
GRAND RAPIDS   CLEAR     55  54  94 CALM      29.94S
CRANE LAKE     CLEAR     52  50  93 CALM      29.96R
ORR            CLEAR     55  52  88 CALM      29.93S
COOK           CLEAR     55  54  94 CALM      29.96S
WALKER         FAIR      57  56  97 CALM      29.94S FOG
$$
MNZ012-019>021-037-040700-
   Northeast Minnesota

CITY           SKY/WX    TMP DP  RH WIND       PRES   REMARKS
DULUTH         CLEAR     59  55  87 N5        29.93S
6HR MIN TEMP:  59; 6HR MAX TEMP:  77;

ELY            CLEAR     54  52  94 CALM      29.95S
HIBBING        CLEAR     53  52  96 CALM      29.95R
DULUTH HARBOR  CLEAR     66  61  82 NE6       29.92R
TWO HARBORS    CLEAR     66  55  68 N6        29.91S
SILVER BAY     CLEAR     61  54  77 CALM      29.92R
GRAND MARAIS     N/A     58  53  84 CALM      29.92R
G MARAIS ARPRT CLEAR     54  50  87 CALM      29.97S
$$
MNZ029>031-032-039>041-046>048-054>057-064-040700-
   West Central Minnesota

CITY           SKY/WX    TMP DP  RH WIND       PRES   REMARKS
FERGUS FALLS   CLEAR     66  64  94 CALM      29.92S FOG
WHEATON        CLEAR     59  57  94 SE3       29.94S FOG
MORRIS         CLEAR     64  63  94 CALM      29.92S FOG
ALEXANDRIA     CLOUDY    63  63 100 CALM      29.95F FOG
ELBOW LAKE     FAIR      69  64  84 SE3       29.93S HAZE
WADENA         MOCLDY    59  57  94 CALM      29.94S FOG
GLENWOOD       CLEAR     66  63  88 N3        29.95S FOG
APPLETON       CLEAR     64  63  94 CALM      29.92S FOG
BENSON         FOG       63  61  94 CALM      29.93S VSB 1/4
ORTONVILLE     CLEAR     66  63  88 CALM      29.92F FOG
MADISON        CLEAR     66  63  88 CALM      29.93S FOG
WILLMAR        FAIR      64  64 100 CALM      29.95S FOG
$$
MNZ033>034-036-042>043-049>051-058-059-040700-
   Central Minnesota

CITY           SKY/WX    TMP DP  RH WIND       PRES   REMARKS
ST CLOUD       FOG       61  61 100 CALM      29.92S VSB 1/4
6HR MIN TEMP:  61; 6HR MAX TEMP:  79;

SAUK CENTRE    FAIR      63  61  95 CALM      29.94S FOG
PAYNESVILLE    CLOUDY    59  59 100 CALM      29.94S FOG
AITKIN         HAZE      55  52  88 CALM      29.92F VSB<1/4
PINE RIVER     FOG       57  55  94 CALM      29.97S VSB 1/2
BRAINERD       FOG       59  58  96 CALM      29.94S VSB 3/4
STAPLES        CLEAR     61  61 100 CALM      29.94S FOG
LONG PRAIRIE   CLOUDY    63  61  94 CALM      29.95S FOG
LITTLE FALLS     N/A     61  59  94 CALM      29.94S FOG
LITCHFIELD     CLEAR     66  64  94 CALM      29.94S
BUFFALO        CLEAR     64  59  84 CALM      29.94S
MAPLE LAKE     CLEAR     64  63  97 CALM      29.93S FOG
$$
MNZ037-044-045-052-053-040700-
   East Central Minnesota

CITY           SKY/WX    TMP DP  RH WIND       PRES   REMARKS
PRINCETON      CLEAR     63  61  94 CALM      29.92F FOG
MORA             N/A     59  59 100 CALM      29.94S FOG
CAMBRIDGE      CLEAR     64  55  72 CALM      29.90F
RUSH CITY      CLEAR     64  62  94 CALM      29.91F
MOOSE LAKE     FOG       57  55  94 CALM      29.91S VSB 1/2
HINCKLEY       FAIR      61  61 100 CALM      29.92S FOG
CLOQUET        CLEAR     59  55  88 N6        29.93S
MCGREGOR       CLEAR     57  55  94 CALM      29.94S
$$
MNZ071>073-080-081-089-090-097-098-040700-
   Southwest Minnesota

CITY           SKY/WX    TMP DP  RH WIND       PRES   REMARKS
MONTEVIDEO     CLEAR     68  64  88 CALM      29.93S
GRANITE FALLS  CLEAR     65  62  90 CALM      29.94S
CANBY          CLEAR     65  63  91 CALM      29.94S
MARSHALL       CLEAR     68  61  77 W6        29.92F
REDWOOD FALLS  CLEAR     67  61  81 S5        29.93R
OLIVIA         CLEAR     68  61  77 CALM      29.93S
PIPESTONE      CLEAR     64  61  88 CALM      29.97S FOG
WINDOM         CLEAR     64  61  88 CALM      29.96S
WORTHINGTON    CLEAR     64  57  77 SW7       29.98S
JACKSON        CLEAR     64  55  72 SW6       29.98S
TRACY          PTCLDY    69  65  86 SW6       29.95S
SLAYTON        CLEAR     65  63  92 CALM      29.98S
$$
MNZ065>067-074>077-082>085-091>093-040700-
   South Central Minnesota

CITY           SKY/WX    TMP DP  RH WIND       PRES   REMARKS
MANKATO        CLEAR     66  57  72 S6        29.94S
NEW ULM        CLEAR     64  61  88 CALM      29.94R
ST JAMES       CLEAR     64  61  88 CALM      29.95S
FAIRMONT       CLEAR     64  55  72 SW6       29.96R
GLENCOE        CLEAR     64  61  91 CALM      29.93S
FARIBAULT      CLEAR     61  57  88 CALM      29.95R
OWATONNA       CLEAR     63  57  82 CALM      29.95S
WASECA         CLEAR     59  55  88 CALM      29.96S
ALBERT LEA     CLEAR     63  61  94 CALM      29.96S
$$
MNZ078>079-086>088-094>096-040700-
   Southeast Minnesota

CITY           SKY/WX    TMP DP  RH WIND       PRES   REMARKS
ROCHESTER      CLEAR     62  55  77 SW7       29.96F
6HR MIN TEMP:  61; 6HR MAX TEMP:  75;

RED WING       CLEAR     61  57  88 CALM      29.92S
STANTON        MOCLDY    63  57  82 SW3       29.92S
DODGE CENTER   CLEAR     61  55  82 SW3       29.96S
WINONA         CLEAR     61  59  94 CALM      29.94S
AUSTIN         CLEAR     61  57  88 CALM      29.96S
PRESTON        CLEAR     59  55  88 SW6       29.96F
$$
ABBREVIATIONS USED IN REMARKS
   TC - TEMPERATURES IN CELSIUS
  WCI - WIND CHILL INDEX
   HX - HEAT INDEX
  VSB - VISIBILITY
$$


USA.gov is the U.S. government's official web portal to all federal, state and local government web resources and services.